QPF
0.02 0.03 0.04 0.05 0.03 0.01 0.01 0.02 0.02 0.02 0.03 0.03 0.03 0.04 0.03 0.03 0.03 0.03 0.04 0.04 0.04 0.07 0.09 0.11 0.14 0.10 0.08 0.11 0.12 0.13 0.11 0.12 0.11 0.10 0.08 0.06 0.06 0.07 0.06 0.06 0.06 0.06 0.05 0.03 0.05 0.07 0.06 0.05 0.06
0.02 0.03 0.05 0.04 0.01 0.00 0.01 0.02 0.02 0.02 0.03 0.03 0.02 0.03 0.02 0.02 0.04 0.05 0.03 0.03 0.04 0.06 0.06 0.08 0.13 0.10 0.08 0.09 0.10 0.11 0.08 0.09 0.11 0.10 0.09 0.07 0.05 0.05 0.06 0.05 0.07 0.07 0.04 0.03 0.03 0.08 0.07 0.06 0.06
0.02 0.03 0.04 0.01 0.01 0.01 0.02 0.02 0.02 0.02 0.02 0.01 0.02 0.03 0.03 0.03 0.04 0.06 0.04 0.02 0.03 0.04 0.04 0.08 0.11 0.09 0.08 0.09 0.08 0.08 0.08 0.07 0.07 0.08 0.08 0.07 0.05 0.04 0.05 0.06 0.07 0.06 0.05 0.04 0.04 0.05 0.05 0.05 0.06
0.03 0.03 0.02 0.01 0.01 0.01 0.02 0.01 0.02 0.01 0.01 0.02 0.02 0.02 0.03 0.03 0.04 0.04 0.02 0.02 0.03 0.03 0.03 0.07 0.11 0.10 0.11 0.15 0.11 0.07 0.07 0.06 0.06 0.07 0.10 0.09 0.07 0.05 0.06 0.08 0.05 0.05 0.06 0.05 0.05 0.04 0.04 0.04 0.06
0.03 0.02 0.01 0.01 0.01 0.01 0.01 0.01 0.01 0.01 0.01 0.01 0.02 0.02 0.03 0.05 0.05 0.03 0.01 0.01 0.03 0.02 0.02 0.04 0.11 0.12 0.14 0.13 0.12 0.09 0.06 0.05 0.05 0.05 0.08 0.09 0.08 0.07 0.06 0.07 0.06 0.05 0.05 0.05 0.04 0.04 0.04 0.04 0.05
0.02 0.01 0.01 0.01 0.01 0.01 0.01 0.00 0.00 0.00 0.00 0.00 0.00 0.00 0.02 0.05 0.06 0.03 0.01 0.02 0.02 0.02 0.02 0.03 0.09 0.10 0.10 0.11 0.11 0.09 0.07 0.07 0.06 0.05 0.06 0.07 0.08 0.08 0.08 0.07 0.07 0.05 0.04 0.03 0.04 0.04 0.06 0.06 0.05
0.01 0.00 0.01 0.01 0.01 0.02 0.01 0.01 0.01 0.00 0.00 0.00 0.00 0.00 0.01 0.02 0.02 0.01 0.02 0.03 0.02 0.01 0.02 0.02 0.05 0.08 0.09 0.11 0.12 0.11 0.09 0.09 0.09 0.08 0.08 0.09 0.09 0.09 0.09 0.07 0.07 0.06 0.05 0.04 0.04 0.05 0.09 0.07 0.05
0.00 0.00 0.01 0.01 0.01 0.01 0.01 0.00 0.00 0.00 0.00 0.00 0.00 0.00 0.01 0.01 0.01 0.01 0.01 0.01 0.01 0.01 0.01 0.04 0.06 0.07 0.07 0.09 0.09 0.09 0.09 0.10 0.09 0.07 0.07 0.07 0.06 0.07 0.10 0.09 0.07 0.07 0.07 0.08 0.08 0.08 0.09 0.07 0.06
0.00 0.00 0.00 0.01 0.01 0.01 0.01 0.01 0.01 0.01 0.01 0.00 0.00 0.01 0.00 0.00 0.00 0.01 0.01 0.01 0.00 0.00 0.01 0.03 0.04 0.04 0.05 0.06 0.07 0.07 0.08 0.08 0.07 0.05 0.05 0.03 0.01 0.02 0.05 0.11 0.08 0.08 0.07 0.10 0.11 0.09 0.09 0.06 0.06
0.00 0.00 0.00 0.00 0.01 0.01 0.01 0.01 0.00 0.01 0.01 0.01 0.01 0.01 0.00 0.00 0.00 0.00 0.00 0.00 0.01 0.01 0.01 0.02 0.03 0.04 0.04 0.03 0.02 0.02 0.02 0.02 0.02 0.02 0.02 0.00 0.00 0.00 0.01 0.06 0.07 0.08 0.07 0.09 0.09 0.06 0.04 0.02 0.03
0.00 0.00 0.00 0.00 0.00 0.00 0.01 0.01 0.00 0.00 0.01 0.01 0.01 0.00 0.00 0.00 0.00 0.00 0.00 0.00 0.00 0.01 0.01 0.02 0.03 0.04 0.03 0.03 0.01 0.01 0.01 0.01 0.00 0.00 0.00 0.00 0.00 0.00 0.00 0.01 0.04 0.04 0.04 0.05 0.06 0.03 0.01 0.01 0.02
0.00 0.00 0.00 0.00 0.00 0.00 0.01 0.01 0.00 0.00 0.00 0.00 0.00 0.00 0.00 0.00 0.00 0.00 0.00 0.00 0.01 0.01 0.02 0.03 0.03 0.03 0.03 0.03 0.02 0.01 0.01 0.00 0.00 0.00 0.00 0.00 0.00 0.00 0.01 0.01 0.02 0.02 0.02 0.02 0.02 0.02 0.01 0.02 0.03
0.00 0.00 0.00 0.00 0.00 0.00 0.00 0.00 0.00 0.00 0.00 0.00 0.00 0.00 0.00 0.00 0.00 0.00 0.00 0.01 0.01 0.00 0.02 0.03 0.02 0.02 0.02 0.02 0.01 0.01 0.01 0.01 0.00 0.00 0.00 0.00 0.00 0.00 0.00 0.01 0.01 0.02 0.01 0.01 0.01 0.02 0.02 0.03 0.03
0.00 0.00 0.00 0.00 0.00 0.00 0.00 0.00 0.00 0.00 0.00 0.00 0.00 0.00 0.00 0.00 0.00 0.00 0.00 0.01 0.00 0.00 0.01 0.01 0.01 0.01 0.00 0.00 0.01 0.01 0.01 0.01 0.00 0.01 0.01 0.00 0.00 0.01 0.02 0.02 0.01 0.01 0.01 0.01 0.02 0.02 0.03 0.02 0.04
0.00 0.00 0.01 0.00 0.00 0.00 0.00 0.00 0.00 0.00 0.00 0.00 0.00 0.00 0.00 0.00 0.00 0.00 0.00 0.00 0.00 0.00 0.00 0.00 0.01 0.00 0.00 0.00 0.01 0.01 0.01 0.01 0.01 0.01 0.01 0.00 0.01 0.01 0.03 0.02 0.01 0.01 0.01 0.01 0.02 0.02 0.02 0.03 0.04
0.00 0.00 0.00 0.00 0.00 0.00 0.00 0.00 0.00 0.00 0.00 0.01 0.01 0.00 0.00 0.00 0.00 0.00 0.00 0.00 0.00 0.00 0.00 0.00 0.00 0.00 0.00 0.00 0.00 0.01 0.01 0.01 0.01 0.02 0.01 0.01 0.00 0.00 0.01 0.01 0.01 0.01 0.01 0.01 0.02 0.03 0.03 0.04 0.05
0.00 0.00 0.00 0.00 0.00 0.00 0.00 0.00 0.00 0.00 0.01 0.01 0.01 0.00 0.00 0.01 0.00 0.00 0.00 0.01 0.00 0.00 0.00 0.00 0.00 0.00 0.00 0.00 0.00 0.00 0.00 0.01 0.01 0.01 0.01 0.01 0.01 0.00 0.01 0.01 0.01 0.01 0.01 0.02 0.03 0.04 0.03 0.05 0.05
0.00 0.00 0.00 0.00 0.00 0.00 0.00 0.00 0.00 0.00 0.00 0.01 0.01 0.01 0.01 0.00 0.00 0.00 0.00 0.00 0.00 0.00 0.00 0.00 0.00 0.00 0.00 0.00 0.00 0.00 0.00 0.00 0.01 0.01 0.01 0.01 0.02 0.01 0.01 0.01 0.00 0.00 0.01 0.02 0.02 0.03 0.03 0.05 0.04
0.00 0.00 0.00 0.00 0.00 0.00 0.00 0.00 0.00 0.00 0.01 0.00 0.00 0.00 0.00 0.00 0.00 0.00 0.00 0.00 0.00 0.00 0.00 0.00 0.00 0.00 0.00 0.00 0.00 0.00 0.00 0.00 0.01 0.01 0.01 0.01 0.01 0.01 0.00 0.01 0.01 0.01 0.01 0.01 0.01 0.01 0.03 0.04 0.03
0.00 0.00 0.00 0.00 0.00 0.00 0.00 0.00 0.00 0.00 0.01 0.01 0.01 0.00 0.00 0.00 0.00 0.00 0.00 0.00 0.00 0.00 0.00 0.00 0.00 0.00 0.00 0.00 0.00 0.00 0.00 0.00 0.00 0.00 0.01 0.01 0.01 0.01 0.01 0.01 0.01 0.01 0.01 0.01 0.01 0.01 0.02 0.02 0.02
0.00 0.00 0.00 0.00 0.00 0.00 0.00 0.00 0.00 0.00 0.01 0.01 0.01 0.00 0.01 0.01 0.01 0.00 0.00 0.00 0.00 0.00 0.00 0.00 0.00 0.00 0.00 0.01 0.01 0.01 0.01 0.01 0.00 0.00 0.00 0.00 0.00 0.01 0.01 0.01 0.01 0.01 0.01 0.01 0.00 0.01 0.01 0.01 0.01
0.00 0.00 0.00 0.00 0.00 0.00 0.00 0.00 0.00 0.00 0.00 0.00 0.00 0.00 0.00 0.00 0.00 0.00 0.00 0.00 0.00 0.00 0.00 0.00 0.00 0.00 0.01 0.01 0.01 0.01 0.01 0.01 0.00 0.00 0.00 0.00 0.00 0.00 0.00 0.00 0.01 0.01 0.01 0.01 0.01 0.00 0.01 0.01 0.02
0.01 0.00 0.00 0.00 0.00 0.00 0.00 0.00 0.00 0.00 0.00 0.00 0.00 0.00 0.00 0.00 0.00 0.00 0.00 0.01 0.00 0.00 0.00 0.00 0.00 0.00 0.00 0.00 0.00 0.01 0.00 0.00 0.00 0.00 0.00 0.00 0.01 0.00 0.00 0.00 0.00 0.01 0.01 0.00 0.00 0.00 0.01 0.01 0.02
0.00 0.00 0.00 0.00 0.00 0.00 0.00 0.00 0.00 0.00 0.00 0.00 0.00 0.00 0.00 0.00 0.00 0.00 0.00 0.01 0.00 0.00 0.00 0.00 0.00 0.00 0.00 0.00 0.00 0.00 0.00 0.00 0.00 0.00 0.00 0.00 0.00 0.01 0.01 0.01 0.01 0.01 0.01 0.01 0.00 0.01 0.01 0.02 0.02
0.00 0.00 0.01 0.01 0.01 0.00 0.00 0.00 0.00 0.00 0.00 0.00 0.00 0.00 0.00 0.00 0.00 0.00 0.00 0.00 0.00 0.01 0.00 0.00 0.00 0.00 0.00 0.00 0.00 0.01 0.01 0.00 0.00 0.00 0.00 0.01 0.00 0.00 0.01 0.01 0.01 0.01 0.01 0.01 0.01 0.01 0.01 0.01 0.02
0.00 0.00 0.00 0.00 0.00 0.00 0.00 0.00 0.00 0.00 0.00 0.00 0.00 0.00 0.00 0.00 0.00 0.00 0.00 0.00 0.00 0.01 0.01 0.00 0.00 0.00 0.00 0.00 0.00 0.01 0.01 0.01 0.01 0.01 0.01 0.01 0.01 0.01 0.01 0.01 0.01 0.02 0.01 0.02 0.02 0.03 0.02 0.02 0.02
0.00 0.00 0.00 0.00 0.00 0.00 0.00 0.00 0.00 0.00 0.00 0.00 0.00 0.00 0.00 0.00 0.00 0.00 0.00 0.01 0.01 0.01 0.01 0.01 0.00 0.00 0.01 0.00 0.01 0.01 0.01 0.01 0.01 0.01 0.01 0.01 0.01 0.01 0.02 0.02 0.02 0.02 0.01 0.01 0.02 0.03 0.02 0.03 0.03
0.00 0.00 0.00 0.00 0.00 0.01 0.00 0.00 0.00 0.00 0.00 0.00 0.00 0.00 0.00 0.00 0.01 0.00 0.00 0.01 0.01 0.01 0.01 0.01 0.01 0.01 0.01 0.01 0.01 0.01 0.01 0.01 0.01 0.01 0.02 0.01 0.01 0.01 0.01 0.02 0.01 0.01 0.01 0.02 0.02 0.02 0.03 0.03 0.02
0.00 0.00 0.00 0.00 0.00 0.00 0.00 0.00 0.00 0.00 0.00 0.00 0.00 0.00 0.00 0.00 0.00 0.00 0.00 0.01 0.01 0.01 0.01 0.01 0.01 0.01 0.01 0.01 0.01 0.01 0.01 0.01 0.02 0.02 0.02 0.01 0.01 0.01 0.01 0.01 0.01 0.01 0.01 0.01 0.01 0.01 0.02 0.02 0.01
0.00 0.00 0.00 0.00 0.00 0.00 0.00 0.00 0.00 0.00 0.00 0.00 0.00 0.00 0.00 0.00 0.00 0.00 0.00 0.01 0.01 0.01 0.01 0.01 0.00 0.00 0.01 0.01 0.01 0.01 0.01 0.01 0.02 0.02 0.02 0.02 0.01 0.01 0.01 0.01 0.01 0.01 0.01 0.01 0.01 0.01 0.01 0.01 0.01
MSLP
1010.55 1011.56 1012.81 1014.17 1015.51 1016.69 1017.60 1018.20 1018.48 1018.49 1018.33 1018.11 1017.89 1017.74 1017.65 1017.57 1017.45 1017.22 1016.83 1016.29 1015.63 1014.90 1014.20 1013.58 1013.12 1012.81 1012.64 1012.56 1012.52 1012.46 1012.35 1012.20 1012.03 1011.88 1011.80 1011.82 1011.94 1012.15 1012.42 1012.69 1012.92 1013.10 1013.21 1013.28 1013.33 1013.40 1013.53 1013.72 1013.96
1011.21 1012.41 1013.77 1015.16 1016.43 1017.46 1018.16 1018.51 1018.54 1018.34 1018.01 1017.66 1017.37 1017.19 1017.10 1017.04 1016.95 1016.76 1016.43 1015.95 1015.37 1014.73 1014.13 1013.62 1013.24 1013.00 1012.85 1012.75 1012.66 1012.53 1012.34 1012.12 1011.90 1011.74 1011.67 1011.72 1011.89 1012.16 1012.48 1012.79 1013.05 1013.24 1013.35 1013.41 1013.45 1013.51 1013.60 1013.76 1013.97
1012.00 1013.33 1014.74 1016.09 1017.24 1018.07 1018.54 1018.66 1018.47 1018.08 1017.61 1017.19 1016.86 1016.67 1016.58 1016.54 1016.47 1016.30 1016.01 1015.60 1015.10 1014.58 1014.11 1013.72 1013.45 1013.27 1013.16 1013.05 1012.91 1012.69 1012.42 1012.12 1011.83 1011.63 1011.54 1011.61 1011.80 1012.10 1012.44 1012.78 1013.07 1013.29 1013.42 1013.51 1013.56 1013.62 1013.72 1013.86 1014.05
1012.85 1014.24 1015.64 1016.89 1017.88 1018.51 1018.76 1018.66 1018.30 1017.79 1017.25 1016.80 1016.47 1016.28 1016.20 1016.16 1016.09 1015.94 1015.67 1015.31 1014.90 1014.49 1014.15 1013.89 1013.73 1013.64 1013.56 1013.44 1013.25 1012.96 1012.60 1012.21 1011.85 1011.59 1011.48 1011.52 1011.71 1012.01 1012.36 1012.72 1013.03 1013.27 1013.45 1013.58 1013.68 1013.78 1013.90 1014.05 1014.23
1013.67 1015.07 1016.39 1017.51 1018.31 1018.75 1018.81 1018.56 1018.10 1017.53 1016.99 1016.55 1016.25 1016.09 1016.01 1015.97 1015.88 1015.71 1015.45 1015.13 1014.79 1014.48 1014.26 1014.13 1014.08 1014.06 1014.01 1013.89 1013.65 1013.30 1012.86 1012.39 1011.97 1011.66 1011.51 1011.52 1011.68 1011.96 1012.29 1012.64 1012.96 1013.23 1013.45 1013.64 1013.82 1013.99 1014.16 1014.34 1014.53
1014.40 1015.74 1016.95 1017.90 1018.52 1018.79 1018.71 1018.37 1017.88 1017.33 1016.84 1016.47 1016.22 1016.09 1016.02 1015.95 1015.82 1015.62 1015.34 1015.04 1014.75 1014.53 1014.41 1014.39 1014.43 1014.48 1014.47 1014.34 1014.07 1013.67 1013.18 1012.67 1012.20 1011.86 1011.67 1011.65 1011.77 1012.00 1012.29 1012.61 1012.91 1013.20 1013.46 1013.72 1013.97 1014.23 1014.47 1014.70 1014.91
1014.97 1016.20 1017.26 1018.04 1018.50 1018.62 1018.46 1018.10 1017.63 1017.17 1016.78 1016.50 1016.33 1016.24 1016.16 1016.05 1015.88 1015.62 1015.32 1015.01 1014.76 1014.61 1014.57 1014.64 1014.75 1014.85 1014.87 1014.74 1014.46 1014.04 1013.53 1013.00 1012.53 1012.18 1011.98 1011.93 1012.01 1012.18 1012.41 1012.67 1012.94 1013.21 1013.50 1013.81 1014.14 1014.48 1014.81 1015.10 1015.33
1015.36 1016.45 1017.34 1017.95 1018.26 1018.28 1018.08 1017.74 1017.35 1017.00 1016.73 1016.57 1016.48 1016.42 1016.34 1016.19 1015.96 1015.64 1015.30 1014.99 1014.77 1014.66 1014.69 1014.83 1015.00 1015.14 1015.17 1015.05 1014.78 1014.37 1013.87 1013.37 1012.93 1012.61 1012.42 1012.36 1012.40 1012.52 1012.68 1012.85 1013.06 1013.29 1013.58 1013.92 1014.31 1014.72 1015.12 1015.48 1015.75
1015.60 1016.53 1017.23 1017.67 1017.85 1017.80 1017.59 1017.30 1017.02 1016.79 1016.66 1016.60 1016.59 1016.56 1016.46 1016.28 1015.99 1015.63 1015.26 1014.94 1014.74 1014.68 1014.76 1014.94 1015.15 1015.32 1015.37 1015.27 1015.01 1014.63 1014.19 1013.75 1013.37 1013.11 1012.96 1012.91 1012.93 1012.99 1013.07 1013.16 1013.28 1013.45 1013.71 1014.05 1014.47 1014.93 1015.40 1015.82 1016.14
1015.73 1016.48 1017.00 1017.29 1017.35 1017.25 1017.05 1016.82 1016.64 1016.53 1016.51 1016.55 1016.59 1016.58 1016.48 1016.26 1015.93 1015.54 1015.16 1014.85 1014.67 1014.65 1014.77 1014.98 1015.22 1015.41 1015.47 1015.39 1015.17 1014.84 1014.46 1014.11 1013.82 1013.64 1013.55 1013.53 1013.54 1013.56 1013.57 1013.58 1013.61 1013.70 1013.90 1014.21 1014.64 1015.13 1015.65 1016.11 1016.48
1015.82 1016.39 1016.74 1016.89 1016.86 1016.71 1016.52 1016.35 1016.24 1016.23 1016.30 1016.40 1016.49 1016.49 1016.38 1016.14 1015.80 1015.40 1015.02 1014.73 1014.58 1014.59 1014.74 1014.98 1015.24 1015.43 1015.51 1015.45 1015.27 1014.99 1014.69 1014.43 1014.24 1014.14 1014.12 1014.14 1014.17 1014.17 1014.12 1014.06 1014.01 1014.03 1014.16 1014.44 1014.84 1015.34 1015.88 1016.39 1016.80
1015.94 1016.35 1016.55 1016.58 1016.46 1016.28 1016.09 1015.95 1015.90 1015.95 1016.07 1016.21 1016.31 1016.32 1016.21 1015.97 1015.63 1015.24 1014.89 1014.63 1014.52 1014.55 1014.73 1014.98 1015.24 1015.44 1015.53 1015.49 1015.34 1015.12 1014.89 1014.70 1014.59 1014.57 1014.62 1014.69 1014.74 1014.73 1014.66 1014.55 1014.45 1014.42 1014.50 1014.73 1015.11 1015.60 1016.15 1016.68 1017.13
1016.15 1016.43 1016.51 1016.43 1016.25 1016.03 1015.83 1015.70 1015.67 1015.74 1015.87 1016.02 1016.13 1016.14 1016.04 1015.81 1015.49 1015.14 1014.82 1014.60 1014.52 1014.58 1014.76 1015.02 1015.28 1015.47 1015.56 1015.54 1015.41 1015.23 1015.05 1014.92 1014.87 1014.91 1015.00 1015.11 1015.18 1015.19 1015.13 1015.02 1014.90 1014.84 1014.90 1015.10 1015.45 1015.93 1016.47 1017.02 1017.51
1016.50 1016.67 1016.65 1016.50 1016.27 1016.01 1015.79 1015.65 1015.61 1015.66 1015.78 1015.91 1016.01 1016.03 1015.93 1015.73 1015.45 1015.15 1014.87 1014.69 1014.63 1014.70 1014.88 1015.12 1015.36 1015.55 1015.64 1015.62 1015.52 1015.36 1015.21 1015.11 1015.08 1015.14 1015.25 1015.37 1015.47 1015.51 1015.48 1015.41 1015.32 1015.28 1015.34 1015.54 1015.89 1016.35 1016.89 1017.44 1017.95
1016.97 1017.06 1016.98 1016.79 1016.52 1016.24 1015.99 1015.82 1015.74 1015.75 1015.83 1015.92 1016.00 1016.01 1015.94 1015.78 1015.55 1015.30 1015.07 1014.91 1014.85 1014.92 1015.08 1015.29 1015.51 1015.68 1015.77 1015.76 1015.67 1015.53 1015.39 1015.28 1015.25 1015.29 1015.38 1015.50 1015.62 1015.69 1015.71 1015.70 1015.68 1015.70 1015.81 1016.04 1016.39 1016.85 1017.38 1017.93 1018.45
1017.52 1017.56 1017.45 1017.24 1016.96 1016.66 1016.39 1016.18 1016.04 1015.99 1016.00 1016.05 1016.09 1016.11 1016.06 1015.95 1015.78 1015.57 1015.38 1015.24 1015.19 1015.22 1015.34 1015.52 1015.71 1015.87 1015.96 1015.96 1015.89 1015.76 1015.61 1015.48 1015.41 1015.40 1015.45 1015.55 1015.65 1015.75 1015.83 1015.90 1015.97 1016.09 1016.27 1016.55 1016.93 1017.39 1017.92 1018.46 1018.98
1018.09 1018.10 1017.99 1017.79 1017.52 1017.23 1016.93 1016.67 1016.46 1016.33 1016.26 1016.24 1016.25 1016.26 1016.25 1016.19 1016.08 1015.93 1015.78 1015.65 1015.58 1015.58 1015.65 1015.78 1015.94 1016.09 1016.18 1016.21 1016.16 1016.05 1015.89 1015.74 1015.62 1015.54 1015.53 1015.57 1015.65 1015.76 1015.89 1016.04 1016.21 1016.43 1016.71 1017.05 1017.47 1017.94 1018.46 1018.99 1019.51
1018.58 1018.61 1018.53 1018.37 1018.14 1017.85 1017.54 1017.23 1016.94 1016.70 1016.54 1016.44 1016.41 1016.42 1016.43 1016.43 1016.39 1016.31 1016.20 1016.08 1015.99 1015.95 1015.97 1016.05 1016.18 1016.31 1016.42 1016.48 1016.47 1016.39 1016.25 1016.07 1015.90 1015.75 1015.66 1015.63 1015.67 1015.78 1015.94 1016.15 1016.42 1016.73 1017.09 1017.51 1017.96 1018.45 1018.96 1019.48 1019.98
1018.96 1019.02 1019.01 1018.92 1018.75 1018.49 1018.17 1017.80 1017.41 1017.07 1016.79 1016.60 1016.52 1016.51 1016.55 1016.61 1016.64 1016.63 1016.57 1016.48 1016.38 1016.30 1016.27 1016.30 1016.39 1016.52 1016.65 1016.75 1016.80 1016.76 1016.65 1016.47 1016.27 1016.06 1015.90 1015.80 1015.78 1015.86 1016.03 1016.29 1016.61 1017.00 1017.43 1017.89 1018.38 1018.88 1019.37 1019.87 1020.35
1019.19 1019.32 1019.41 1019.42 1019.33 1019.12 1018.79 1018.36 1017.88 1017.40 1016.99 1016.69 1016.53 1016.50 1016.56 1016.68 1016.79 1016.86 1016.86 1016.81 1016.71 1016.60 1016.53 1016.52 1016.58 1016.70 1016.85 1017.00 1017.10 1017.13 1017.06 1016.91 1016.69 1016.46 1016.24 1016.08 1016.01 1016.05 1016.20 1016.46 1016.82 1017.24 1017.71 1018.20 1018.70 1019.19 1019.66 1020.13 1020.59
1019.30 1019.53 1019.75 1019.89 1019.91 1019.76 1019.43 1018.94 1018.34 1017.72 1017.15 1016.72 1016.47 1016.39 1016.46 1016.62 1016.82 1016.97 1017.06 1017.05 1016.97 1016.86 1016.75 1016.70 1016.72 1016.83 1016.99 1017.18 1017.34 1017.43 1017.43 1017.33 1017.14 1016.90 1016.65 1016.45 1016.33 1016.33 1016.45 1016.70 1017.04 1017.47 1017.93 1018.42 1018.90 1019.37 1019.81 1020.25 1020.68
1019.34 1019.72 1020.09 1020.40 1020.54 1020.45 1020.12 1019.56 1018.84 1018.06 1017.33 1016.74 1016.37 1016.22 1016.27 1016.47 1016.74 1016.99 1017.16 1017.21 1017.17 1017.06 1016.94 1016.85 1016.83 1016.91 1017.07 1017.28 1017.48 1017.64 1017.70 1017.67 1017.53 1017.31 1017.08 1016.86 1016.71 1016.67 1016.75 1016.96 1017.27 1017.66 1018.10 1018.55 1018.99 1019.42 1019.82 1020.22 1020.62
1019.41 1019.95 1020.51 1020.98 1021.25 1021.24 1020.91 1020.28 1019.43 1018.48 1017.56 1016.80 1016.29 1016.05 1016.06 1016.28 1016.60 1016.93 1017.19 1017.32 1017.33 1017.24 1017.10 1016.97 1016.92 1016.96 1017.09 1017.29 1017.52 1017.72 1017.85 1017.88 1017.81 1017.65 1017.44 1017.24 1017.09 1017.02 1017.07 1017.23 1017.49 1017.82 1018.20 1018.60 1018.99 1019.37 1019.72 1020.07 1020.44
1019.59 1020.31 1021.05 1021.69 1022.08 1022.13 1021.80 1021.10 1020.12 1019.00 1017.90 1016.95 1016.28 1015.93 1015.88 1016.09 1016.45 1016.84 1017.17 1017.38 1017.45 1017.39 1017.25 1017.10 1017.00 1016.98 1017.07 1017.25 1017.47 1017.69 1017.87 1017.96 1017.95 1017.85 1017.70 1017.53 1017.40 1017.32 1017.34 1017.45 1017.66 1017.93 1018.25 1018.58 1018.91 1019.23 1019.54 1019.85 1020.18
1019.91 1020.80 1021.72 1022.50 1023.00 1023.10 1022.75 1021.98 1020.89 1019.60 1018.32 1017.20 1016.37 1015.89 1015.76 1015.93 1016.29 1016.73 1017.13 1017.40 1017.53 1017.51 1017.38 1017.22 1017.08 1017.01 1017.05 1017.17 1017.37 1017.58 1017.77 1017.91 1017.96 1017.92 1017.83 1017.71 1017.60 1017.54 1017.54 1017.62 1017.78 1017.99 1018.24 1018.52 1018.79 1019.06 1019.32 1019.60 1019.90
1020.39 1021.42 1022.46 1023.35 1023.91 1024.04 1023.67 1022.84 1021.64 1020.22 1018.79 1017.51 1016.53 1015.92 1015.70 1015.81 1016.15 1016.61 1017.05 1017.38 1017.57 1017.59 1017.50 1017.33 1017.17 1017.06 1017.04 1017.11 1017.26 1017.45 1017.64 1017.78 1017.87 1017.89 1017.85 1017.78 1017.70 1017.66 1017.66 1017.72 1017.84 1018.00 1018.21 1018.43 1018.65 1018.89 1019.12 1019.37 1019.64
1020.96 1022.08 1023.19 1024.12 1024.71 1024.83 1024.43 1023.54 1022.26 1020.76 1019.21 1017.82 1016.72 1016.00 1015.68 1015.72 1016.02 1016.46 1016.92 1017.29 1017.53 1017.61 1017.56 1017.43 1017.27 1017.14 1017.09 1017.11 1017.21 1017.35 1017.51 1017.65 1017.75 1017.80 1017.80 1017.77 1017.73 1017.70 1017.71 1017.76 1017.85 1017.99 1018.16 1018.35 1018.54 1018.75 1018.97 1019.20 1019.46
1021.55 1022.69 1023.79 1024.70 1025.25 1025.33 1024.89 1023.96 1022.65 1021.10 1019.51 1018.05 1016.88 1016.08 1015.67 1015.63 1015.87 1016.27 1016.72 1017.12 1017.40 1017.55 1017.56 1017.48 1017.36 1017.25 1017.18 1017.18 1017.24 1017.34 1017.47 1017.58 1017.67 1017.72 1017.74 1017.73 1017.71 1017.71 1017.72 1017.77 1017.86 1017.98 1018.13 1018.30 1018.49 1018.69 1018.90 1019.13 1019.39
1022.06 1023.13 1024.15 1024.96 1025.41 1025.42 1024.94 1024.00 1022.70 1021.17 1019.60 1018.15 1016.96 1016.12 1015.65 1015.53 1015.69 1016.04 1016.45 1016.85 1017.16 1017.36 1017.45 1017.45 1017.40 1017.34 1017.31 1017.31 1017.36 1017.43 1017.52 1017.60 1017.67 1017.70 1017.72 1017.72 1017.71 1017.72 1017.74 1017.80 1017.88 1018.00 1018.14 1018.31 1018.50 1018.70 1018.93 1019.17 1019.43
1022.43 1023.35 1024.21 1024.85 1025.17 1025.09 1024.57 1023.64 1022.40 1020.95 1019.47 1018.09 1016.94 1016.10 1015.60 1015.41 1015.49 1015.76 1016.11 1016.47 1016.80 1017.04 1017.21 1017.30 1017.35 1017.38 1017.41 1017.46 1017.52 1017.59 1017.65 1017.71 1017.75 1017.76 1017.77 1017.76 1017.76 1017.77 1017.80 1017.86 1017.95 1018.07 1018.21 1018.38 1018.58 1018.79 1019.03 1019.28 1019.55
Thickness
5799 5798 5795 5782 5759 5739 5733 5740 5748 5748 5748 5754 5757 5753 5746 5740 5736 5732 5750 5759 5759 5759 5759 5759 5758 5758 5758 5757 5757 5756 5755 5755 5754 5753 5752 5752 5753 5752 5752 5751 5751 5751 5751 5751 5751 5752 5752 5752 5752
5799 5796 5786 5768 5742 5724 5729 5742 5745 5749 5754 5757 5756 5752 5745 5742 5747 5747 5752 5757 5758 5757 5757 5756 5756 5756 5755 5754 5754 5753 5752 5752 5751 5750 5749 5749 5749 5749 5748 5748 5747 5747 5747 5747 5747 5747 5747 5748 5748
5799 5794 5773 5753 5736 5727 5733 5744 5747 5753 5758 5757 5750 5749 5745 5742 5747 5749 5753 5756 5756 5755 5754 5754 5753 5753 5752 5751 5750 5750 5749 5748 5747 5747 5746 5746 5746 5745 5745 5744 5744 5743 5743 5743 5743 5743 5744 5744 5744
5793 5779 5764 5744 5733 5738 5743 5748 5752 5752 5755 5755 5749 5742 5744 5749 5750 5752 5754 5754 5753 5752 5752 5751 5751 5750 5749 5748 5747 5746 5746 5745 5745 5744 5743 5743 5742 5742 5741 5741 5740 5740 5740 5740 5740 5740 5740 5740 5741
5786 5766 5746 5732 5735 5743 5749 5753 5755 5749 5748 5748 5746 5738 5738 5748 5753 5753 5752 5751 5750 5749 5749 5749 5749 5748 5747 5746 5744 5743 5742 5742 5741 5741 5740 5740 5739 5739 5738 5738 5737 5736 5736 5736 5736 5736 5736 5737 5737
5769 5756 5732 5724 5733 5743 5750 5754 5753 5747 5746 5747 5744 5737 5737 5747 5749 5749 5749 5748 5748 5747 5747 5746 5746 5745 5744 5742 5741 5740 5739 5738 5738 5737 5737 5736 5735 5735 5735 5734 5733 5733 5732 5732 5732 5732 5732 5732 5733
5761 5745 5731 5730 5731 5738 5748 5755 5749 5745 5743 5745 5745 5735 5736 5743 5746 5747 5746 5746 5745 5744 5744 5743 5743 5742 5741 5739 5738 5737 5736 5735 5734 5734 5733 5732 5732 5731 5731 5731 5730 5729 5729 5729 5728 5728 5728 5729 5729
5768 5747 5733 5730 5731 5736 5750 5753 5752 5747 5744 5751 5748 5735 5733 5742 5745 5745 5743 5742 5741 5741 5740 5739 5739 5738 5736 5735 5734 5733 5732 5731 5731 5730 5729 5728 5728 5727 5727 5727 5726 5726 5725 5725 5725 5724 5724 5725 5725
5770 5740 5727 5732 5734 5739 5750 5748 5750 5753 5747 5747 5747 5744 5745 5746 5744 5740 5737 5736 5736 5737 5737 5736 5735 5734 5733 5732 5731 5729 5728 5727 5727 5726 5725 5725 5724 5724 5723 5723 5722 5722 5722 5721 5721 5720 5720 5721 5721
5758 5733 5738 5746 5746 5746 5749 5747 5747 5744 5739 5738 5740 5742 5745 5743 5739 5735 5732 5731 5731 5732 5733 5733 5732 5731 5730 5729 5728 5726 5725 5724 5724 5723 5722 5722 5721 5720 5720 5719 5719 5718 5718 5717 5717 5716 5717 5717 5717
5757 5743 5748 5752 5754 5753 5748 5747 5748 5739 5732 5736 5737 5737 5739 5737 5735 5732 5731 5730 5730 5731 5731 5731 5729 5728 5727 5726 5725 5723 5722 5722 5721 5720 5720 5719 5718 5717 5716 5716 5715 5715 5715 5714 5713 5713 5713 5713 5713
5754 5752 5754 5754 5757 5753 5748 5746 5743 5740 5740 5746 5745 5742 5738 5735 5733 5731 5729 5729 5729 5729 5729 5729 5728 5727 5725 5724 5722 5721 5720 5719 5718 5718 5717 5716 5715 5714 5713 5712 5712 5712 5711 5710 5710 5710 5709 5709 5709
5750 5750 5755 5756 5755 5752 5749 5744 5742 5741 5746 5747 5744 5740 5736 5734 5732 5732 5731 5730 5728 5727 5727 5727 5726 5725 5723 5722 5721 5720 5719 5718 5717 5716 5715 5714 5713 5712 5711 5710 5709 5709 5708 5708 5707 5707 5706 5706 5705
5751 5750 5750 5751 5751 5750 5744 5741 5740 5740 5744 5741 5738 5735 5734 5732 5731 5730 5729 5728 5727 5726 5726 5726 5725 5724 5722 5720 5719 5718 5717 5716 5715 5714 5713 5713 5711 5710 5709 5708 5707 5706 5706 5705 5704 5703 5703 5702 5701
5753 5744 5742 5745 5747 5746 5742 5731 5735 5742 5741 5736 5734 5733 5732 5731 5731 5729 5729 5728 5726 5725 5725 5724 5724 5722 5721 5719 5718 5717 5716 5715 5714 5713 5712 5711 5710 5708 5707 5705 5704 5704 5703 5702 5701 5700 5700 5699 5698
5744 5731 5722 5736 5742 5743 5733 5718 5735 5741 5737 5731 5730 5729 5729 5729 5730 5730 5729 5728 5727 5725 5724 5723 5724 5721 5719 5718 5717 5716 5715 5713 5712 5711 5710 5709 5708 5707 5705 5704 5702 5701 5700 5699 5698 5697 5695 5694 5693
5724 5715 5717 5727 5739 5737 5729 5720 5735 5738 5735 5729 5728 5726 5726 5727 5728 5729 5729 5728 5727 5725 5723 5721 5721 5719 5717 5716 5715 5714 5713 5711 5710 5709 5708 5707 5706 5705 5704 5702 5701 5699 5698 5697 5696 5694 5693 5690 5689
5714 5714 5716 5719 5732 5731 5723 5722 5732 5734 5732 5728 5726 5725 5724 5724 5727 5729 5728 5727 5726 5724 5722 5720 5718 5717 5715 5714 5712 5711 5710 5709 5708 5707 5706 5705 5704 5703 5702 5700 5699 5698 5696 5694 5693 5691 5690 5688 5687
5725 5718 5714 5721 5733 5727 5720 5721 5728 5731 5729 5726 5724 5723 5723 5725 5728 5728 5727 5726 5724 5722 5719 5718 5716 5714 5713 5711 5709 5707 5705 5705 5705 5705 5704 5703 5702 5701 5700 5698 5697 5696 5694 5692 5691 5689 5686 5684 5685
5724 5716 5714 5722 5731 5727 5718 5718 5727 5730 5729 5730 5728 5726 5725 5724 5725 5725 5725 5723 5722 5719 5718 5716 5714 5713 5712 5711 5709 5707 5705 5703 5703 5703 5702 5701 5701 5700 5698 5697 5696 5694 5692 5690 5689 5688 5685 5683 5683
5721 5716 5716 5716 5722 5723 5717 5712 5720 5728 5731 5732 5732 5730 5728 5726 5724 5723 5723 5722 5720 5718 5716 5716 5714 5712 5711 5710 5707 5705 5703 5701 5700 5700 5699 5699 5699 5698 5697 5696 5695 5693 5692 5690 5688 5687 5685 5682 5681
5714 5727 5724 5719 5708 5699 5707 5689 5711 5719 5723 5728 5730 5729 5728 5728 5727 5724 5723 5721 5720 5718 5717 5715 5713 5711 5709 5708 5706 5703 5699 5696 5697 5697 5697 5697 5697 5697 5696 5695 5694 5693 5692 5690 5689 5688 5686 5684 5681
5723 5729 5722 5716 5706 5697 5699 5691 5701 5715 5717 5725 5730 5732 5731 5730 5728 5726 5724 5723 5721 5719 5716 5714 5712 5710 5708 5706 5704 5702 5698 5697 5696 5696 5695 5695 5695 5695 5695 5694 5693 5692 5691 5690 5689 5687 5686 5684 5682
5728 5719 5711 5700 5693 5682 5693 5687 5692 5707 5717 5726 5732 5734 5733 5731 5729 5727 5725 5723 5720 5717 5715 5713 5710 5708 5707 5705 5703 5700 5698 5696 5694 5693 5693 5693 5693 5693 5693 5693 5692 5691 5690 5689 5688 5687 5686 5684 5683
5718 5698 5679 5677 5670 5675 5692 5689 5696 5721 5728 5730 5732 5734 5734 5732 5728 5724 5721 5719 5717 5715 5713 5711 5709 5706 5705 5703 5701 5699 5697 5696 5694 5693 5692 5691 5691 5691 5692 5692 5691 5690 5690 5689 5688 5687 5685 5684 5682
5709 5700 5676 5667 5665 5672 5687 5685 5706 5729 5733 5736 5737 5736 5733 5730 5727 5725 5722 5719 5717 5714 5712 5710 5707 5705 5703 5701 5700 5698 5696 5695 5694 5693 5692 5691 5691 5691 5692 5691 5690 5690 5689 5688 5687 5686 5684 5683 5681
5704 5694 5696 5678 5674 5669 5677 5691 5712 5730 5731 5732 5733 5732 5730 5728 5726 5724 5722 5720 5717 5714 5711 5709 5707 5704 5702 5701 5699 5697 5695 5694 5693 5692 5691 5691 5691 5691 5691 5690 5689 5688 5687 5686 5685 5684 5682 5681 5679
5710 5698 5682 5673 5662 5659 5672 5683 5693 5715 5722 5725 5726 5726 5727 5727 5725 5724 5722 5720 5717 5715 5711 5709 5706 5704 5702 5700 5698 5697 5695 5694 5693 5691 5690 5690 5690 5690 5689 5688 5687 5686 5685 5685 5683 5682 5681 5679 5678
5697 5692 5682 5670 5669 5658 5659 5678 5712 5716 5722 5722 5724 5726 5726 5725 5724 5723 5721 5719 5716 5713 5710 5707 5704 5702 5700 5698 5697 5695 5693 5692 5691 5690 5689 5689 5688 5688 5687 5687 5686 5685 5684 5683 5682 5680 5679 5677 5676
5700 5691 5680 5669 5664 5662 5660 5677 5720 5720 5722 5723 5724 5725 5725 5724 5723 5721 5719 5716 5713 5710 5708 5705 5703 5701 5699 5698 5695 5693 5692 5690 5688 5687 5687 5688 5687 5687 5686 5685 5684 5683 5682 5681 5680 5679 5677 5675 5674